Home > Weather > Darlington > Past weeks

Flag for United Kingdom Past Weather in Darlington, England, United Kingdom — Yesterday and Last 2 Weeks

Now
68 °F

Scattered clouds.


Feels Like: 68 °F
Forecast: 54 / 69 °F
Wind: 13 mph from Southwest

Location: Tees-Side

Current Time: Jul 26, 2016 at 3:23:06 PM

Latest Report: Jul 26, 2016 at 2:50 PM


Visibility: N/A

Pressure: 30.04 "Hg

Humidity: 60%

Dew Point: 54 °F

Location of DarlingtonLocation

Past Weather in Darlington — Graph

°F

Darlington Temperature Yesterday

Maximum temperature yesterday: 68 °F (at 11:20 AM)
Minimum temperature yesterday: 57 °F (at 9:50 PM)
Average temperature yesterday: 64 °F

High & Low Weather Summary for the Past Weeks

 TemperatureHumidityPressure
High86 °F (Jul 19, 2:50 PM)100% (Jul 19, 6:20 AM)30.24 "Hg (Jul 19, 6:20 AM)
Low46 °F (Jul 14, 5:50 AM)38% (Jul 19, 6:20 PM)29.56 "Hg (Jul 11, 2:20 PM)
Average67 °F67%30.02 "Hg
* Reported Jul 11 2:20 PM — Jul 26 2:20 PM, Darlington, Weather by CustomWeather, © 2016

Note: Actual official high and low records may vary slightly from our data, if they occured in-between our weather recording intervals... More about our weather records

Advertising

Darlington Weather History for the Previous 24 Hours

Scroll right to see more
 ConditionsComfort  
Time TempWeatherWind HumidityBarometerVisibility
2:20 PM
Tue, Jul 26
66 °FScattered clouds.14 mph64%30.07 "HgN/A
1:50 PM68 °FPassing clouds.14 mph60%30.07 "HgN/A
1:20 PM68 °FScattered clouds.15 mph56%30.07 "HgN/A
12:50 PM68 °FScattered clouds.15 mph56%30.07 "HgN/A
12:20 PM68 °FScattered clouds.14 mph60%30.07 "HgN/A
11:50 AM66 °FScattered clouds.12 mph68%30.07 "HgN/A
11:20 AM64 °FScattered clouds.8 mph78%30.07 "HgN/A
10:50 AM61 °FScattered showers. Scattered clouds.8 mph88%30.07 "HgN/A
10:20 AM61 °FSprinkles. Scattered clouds.6 mph88%30.07 "HgN/A
9:50 AM63 °FScattered clouds.12 mph77%30.07 "HgN/A
9:20 AM63 °FPassing clouds.9 mph77%30.09 "HgN/A
8:50 AM61 °FPassing clouds.10 mph83%30.07 "HgN/A
8:20 AM61 °FPassing clouds.8 mph83%30.07 "HgN/A
7:50 AM59 °FPassing clouds.10 mph88%30.07 "HgN/A
7:20 AM57 °FPassing clouds.9 mph94%30.07 "HgN/A
6:50 AM55 °FPassing clouds.7 mph94%30.07 "HgN/A
6:20 AM54 °FPassing clouds.3 mph94%30.07 "HgN/A
5:50 AM50 °FPassing clouds.6 mph94%30.07 "HgN/A
9:50 PM
Mon, Jul 25
57 °FSunny.8 mph77%30.07 "Hg10 mi
9:20 PM59 °FSunny.12 mph72%30.07 "Hg10 mi
8:50 PM61 °FSunny.8 mph72%30.04 "Hg10 mi
8:20 PM63 °FPassing clouds.10 mph68%30.04 "HgN/A
7:50 PM63 °FPassing clouds.10 mph68%30.04 "HgN/A
7:20 PM64 °FPassing clouds.10 mph60%30.04 "HgN/A
6:50 PM64 °FScattered clouds.14 mph64%30.04 "HgN/A
6:20 PM64 °FScattered clouds.14 mph64%30.04 "HgN/A
5:50 PM66 °FScattered clouds.16 mph60%30.04 "HgN/A
5:20 PM64 °FPassing clouds.12 mph64%30.01 "HgN/A
4:50 PM66 °FPassing clouds.16 mph56%30.01 "HgN/A
4:20 PM64 °FPassing clouds.16 mph60%30.01 "HgN/A
3:50 PM64 °FPassing clouds.17 mph60%30.01 "HgN/A
3:20 PM64 °FPassing clouds.17 mph60%30.01 "HgN/A
Weather by CustomWeather, © 2016

See weather overviewHow to use our weather pages